EHI
0 0 0 0 0 0 0 0 0 0 0 0 0 0 0 1 1 2 5 10 14 17 20 24 27 28 25 19 14 11 8 6 6 5 4 2 1 0 0 0 0 0 0 0 0 0 0 0 0
0 0 0 0 0 0 0 0 0 0 0 0 0 0 0 2 3 5 8 12 15 19 22 24 27 28 25 21 17 12 8 7 6 4 3 2 1 0 0 0 0 0 0 0 0 0 0 0 0
0 0 0 0 0 0 0 0 0 0 0 0 0 0 1 3 6 8 10 13 16 20 23 25 26 26 26 24 19 13 9 7 6 4 3 1 0 0 0 0 0 0 0 0 0 0 0 0 0
0 0 0 0 0 0 0 0 0 0 0 0 0 1 2 5 8 10 12 13 15 19 23 25 25 26 26 25 20 14 10 8 6 4 2 1 0 0 0 0 0 0 0 0 0 0 0 0 0
0 0 0 0 0 0 0 0 0 0 0 0 1 3 4 5 7 11 13 14 16 19 23 25 25 26 26 25 20 15 12 9 5 2 1 0 0 0 0 0 0 0 0 0 0 0 0 0 0
0 0 0 0 0 0 0 0 0 0 0 0 2 3 4 4 5 8 11 13 14 18 22 24 25 25 25 23 20 16 13 8 4 1 0 0 0 0 0 0 0 0 0 0 0 0 0 0 0
0 0 0 0 0 0 0 0 0 0 0 0 1 3 3 2 2 5 8 9 11 15 19 21 22 21 20 18 16 14 12 7 3 0 0 0 0 0 0 0 0 0 0 0 0 0 0 0 0
0 0 0 0 0 0 0 0 0 0 1 1 1 2 2 1 1 3 6 7 7 10 13 15 16 16 14 12 11 11 8 5 2 0 0 0 0 0 0 0 0 0 0 0 0 0 0 0 0
0 0 0 0 0 0 0 0 0 0 1 1 1 1 1 0 1 2 4 4 4 5 6 8 10 11 11 10 10 8 6 3 1 0 0 0 0 0 0 0 0 0 0 0 0 0 0 0 0
0 0 0 0 0 0 0 0 0 1 1 1 0 0 0 0 1 2 3 2 1 1 2 5 7 8 9 9 9 8 5 2 1 0 0 0 0 0 0 0 0 0 0 0 0 0 0 0 0
0 0 0 0 0 0 0 0 0 1 0 0 0 0 0 0 0 1 2 2 1 1 2 3 5 6 7 7 8 6 4 2 1 0 0 0 0 0 0 0 0 0 0 0 0 0 0 0 0
0 0 0 0 0 0 0 0 0 0 0 0 0 0 0 0 0 0 1 1 1 2 2 2 4 6 6 6 6 6 4 3 2 1 0 0 0 0 0 0 0 0 0 0 0 0 0 0 0
0 0 0 0 0 0 0 0 0 0 0 0 0 0 0 0 0 0 0 0 0 1 1 1 2 5 6 6 6 5 4 3 2 1 0 0 0 0 0 0 0 0 0 0 0 0 0 0 0
0 0 0 0 0 0 0 0 0 0 0 0 0 0 0 0 0 0 0 0 0 0 0 0 1 2 4 5 5 4 3 3 2 1 0 0 0 0 0 0 0 0 0 0 0 0 0 0 0
0 0 0 0 0 0 0 0 0 0 0 0 0 0 0 0 0 0 0 0 0 0 0 0 0 0 2 3 4 3 3 3 2 1 0 0 0 0 1 0 0 0 0 0 0 0 0 0 0
0 0 0 0 0 0 0 0 0 0 0 0 0 0 0 0 0 0 0 0 0 0 0 0 0 0 1 2 3 3 3 3 2 1 0 0 0 0 0 0 0 0 0 0 0 0 0 0 0
0 0 0 0 0 0 0 0 0 0 0 0 0 0 0 0 0 0 0 0 0 0 0 0 0 0 0 1 2 2 2 2 2 1 0 0 0 0 0 0 0 0 0 0 0 0 0 0 0
0 0 0 0 0 0 0 0 0 0 0 0 0 0 0 0 0 0 0 0 0 0 0 0 0 0 0 0 1 1 1 1 1 0 0 0 0 0 0 0 0 0 0 0 0 0 0 0 0
0 0 0 0 0 0 0 0 0 0 0 0 0 0 0 0 0 0 0 0 0 0 0 0 0 0 0 0 0 0 0 0 0 0 0 0 0 0 0 0 0 0 0 0 0 0 0 0 0
0 0 0 0 0 0 0 0 0 0 0 0 0 0 0 0 0 0 0 0 0 0 0 0 0 0 0 0 0 0 0 0 0 0 0 0 0 0 0 0 0 0 0 0 0 0 0 0 0
0 0 0 0 0 0 0 0 0 0 0 0 0 0 0 0 0 0 0 0 0 0 0 0 0 0 0 0 0 0 0 0 0 0 0 0 0 0 0 0 0 0 0 0 0 0 0 0 0
0 0 0 0 0 0 0 0 0 0 0 0 0 0 0 0 0 0 0 0 0 0 0 0 0 0 0 0 0 0 0 0 0 0 0 0 0 0 0 0 0 0 0 0 0 0 0 0 0
0 0 0 0 0 0 0 0 0 0 0 0 0 0 0 0 0 0 0 0 0 0 0 0 0 0 0 0 0 0 0 0 0 0 0 0 0 0 0 0 0 0 0 0 0 0 0 0 0
0 0 0 0 0 0 0 0 0 0 0 0 0 0 0 0 0 0 0 0 0 0 0 0 0 0 0 0 0 0 0 0 0 0 0 0 0 0 0 0 0 0 0 0 0 0 0 0 0
0 0 0 0 0 0 0 0 0 0 0 0 0 0 0 0 0 0 0 0 0 0 0 0 0 0 0 0 0 0 0 0 0 0 0 0 0 0 0 0 0 0 0 0 0 0 0 0 0
0 0 0 0 0 0 0 0 0 0 0 0 0 0 0 0 0 0 0 0 0 0 0 0 0 0 0 0 0 0 0 0 0 0 0 0 0 0 0 0 0 0 0 0 0 0 0 0 0
0 0 0 0 0 0 0 0 0 0 0 0 0 0 0 0 0 0 0 0 0 0 0 0 0 0 0 0 0 0 0 0 0 0 0 0 0 0 0 0 0 0 0 0 0 0 0 0 0
0 0 0 0 0 0 0 0 0 0 0 0 0 0 0 0 0 0 0 0 0 0 0 0 0 0 0 0 0 0 0 0 0 0 0 0 0 0 0 0 0 0 0 0 0 0 0 0 0
0 0 0 0 0 0 0 0 0 0 0 0 0 0 0 0 0 0 0 0 0 0 0 0 0 0 0 0 0 0 0 0 0 0 0 0 0 0 0 0 0 0 0 0 0 0 0 0 0
0 0 0 0 0 0 0 0 0 0 0 0 0 0 0 0 0 0 0 0 0 0 0 0 0 0 0 0 0 0 0 0 0 0 0 0 0 0 0 0 0 0 0 0 0 0 0 0 0
Wind_Speed
4 3 2 3 4 2 5 5 3 3 2 1 2 6 8 5 4 5 3 5 9 8 6 7 9 10 10 9 9 8 8 7 7 6 6 6 5 5 5 4 4 4 4 4 4 4 4 4 3
1 1 3 4 4 3 5 4 4 4 5 4 4 4 6 4 3 5 3 7 10 8 6 6 9 9 10 9 9 8 8 7 7 6 5 5 4 4 4 4 4 3 3 3 3 3 3 3 2
1 1 3 3 4 6 5 4 5 1 1 2 4 5 5 4 2 3 4 9 9 7 5 6 9 9 9 9 8 8 7 7 6 5 5 4 4 3 3 3 3 3 3 3 2 2 2 2 2
2 2 3 2 5 5 5 4 4 3 2 4 5 5 4 3 1 3 8 9 9 6 5 6 9 9 8 8 7 7 7 6 6 5 4 4 3 3 3 3 3 3 2 2 2 2 2 2 2
3 3 2 2 4 3 3 3 2 2 2 3 4 6 3 4 5 6 8 9 9 6 5 5 9 8 8 8 7 6 6 6 5 5 4 4 3 3 3 3 3 2 2 2 2 2 3 3 3
2 3 3 4 4 2 3 2 2 3 3 3 4 5 3 2 5 5 7 8 8 7 6 5 8 8 8 7 7 6 6 5 5 5 5 4 4 4 4 4 3 2 2 2 3 3 4 5 5
3 3 4 5 4 3 4 1 3 4 4 2 4 6 3 1 3 5 7 7 7 7 6 4 4 5 6 6 7 7 6 6 5 5 5 5 5 5 5 4 4 4 3 3 3 4 4 5 5
3 3 2 3 4 5 3 1 2 5 4 2 3 7 6 4 3 6 8 8 7 6 5 5 4 4 3 3 6 7 7 6 6 6 5 5 5 5 5 5 5 4 4 4 4 4 5 5 6
2 3 3 4 5 4 2 2 2 3 5 4 3 3 5 8 6 8 7 6 6 6 4 4 4 4 3 3 5 5 6 6 6 5 6 5 2 2 3 5 6 6 6 5 5 5 5 5 5
3 2 3 3 3 3 1 3 4 4 5 4 5 5 7 7 7 8 7 5 4 4 3 3 3 3 3 3 3 2 3 3 3 2 2 2 2 2 3 5 6 6 6 6 6 7 6 4 3
2 3 2 3 3 2 2 2 2 7 3 4 8 9 7 7 7 7 5 5 4 3 3 3 3 3 3 2 2 2 2 2 3 3 2 2 2 2 2 2 3 3 4 3 5 5 3 3 3
2 1 1 3 3 1 2 3 4 3 3 4 8 10 8 8 6 6 5 4 4 4 3 3 3 3 3 3 2 2 2 2 2 3 3 2 2 2 2 2 2 2 2 2 2 2 3 4 4
1 0 2 3 5 4 7 5 5 3 4 8 10 9 9 8 6 4 5 5 4 3 3 2 3 3 3 3 2 2 2 2 2 2 3 3 2 2 2 2 2 2 2 2 2 3 3 4 4
2 2 2 4 4 4 7 4 4 2 5 9 9 8 7 7 6 5 4 4 3 3 2 2 3 2 3 3 2 2 2 2 2 3 3 4 2 2 2 2 2 2 2 2 2 3 3 3 3
2 3 5 4 3 2 6 5 1 3 7 8 7 6 6 6 6 5 4 4 3 3 2 2 2 3 3 3 2 2 1 2 2 2 3 4 3 3 2 2 2 2 3 3 2 3 3 3 3
3 4 3 3 2 2 5 1 1 3 7 6 5 5 5 4 4 4 4 4 3 3 3 2 2 3 2 2 2 1 2 2 2 2 3 4 4 3 2 2 2 3 3 2 2 3 3 3 3
4 2 1 1 2 2 4 2 1 3 7 6 4 4 4 4 3 3 4 4 4 3 3 2 2 2 2 2 2 2 2 2 2 2 2 3 4 3 3 2 2 3 2 3 3 2 2 3 4
2 2 1 1 1 3 2 2 2 3 5 5 4 4 4 5 4 4 4 4 4 3 3 2 2 2 2 2 2 2 3 2 2 2 2 3 3 3 3 2 3 3 2 3 3 3 2 2 3
4 4 3 0 0 2 2 2 3 3 4 5 5 5 5 5 4 4 4 4 3 2 2 2 1 1 1 1 1 1 1 1 2 2 3 3 3 3 3 2 3 3 2 3 4 3 3 3 3
4 5 2 2 2 2 1 2 3 4 5 6 7 7 7 5 3 4 4 3 3 2 2 1 1 0 0 0 1 1 1 0 0 1 2 3 3 3 3 3 2 2 2 3 4 3 2 2 3
4 3 3 2 2 3 2 3 3 2 2 3 5 5 6 7 7 6 5 4 3 3 3 2 2 1 0 0 1 1 1 1 1 1 1 2 2 2 2 3 2 2 2 2 3 3 2 2 2
1 1 2 3 3 1 2 1 5 3 2 4 5 5 6 5 6 5 5 5 4 4 3 2 2 1 1 1 1 2 1 1 1 1 1 1 2 2 2 2 2 2 2 2 2 2 2 1 2
1 1 2 2 3 2 1 2 7 2 3 5 5 6 6 5 6 6 6 6 5 4 3 2 2 1 1 1 1 1 1 2 1 0 0 1 1 2 2 2 2 2 1 1 2 2 2 1 1
2 4 5 5 4 1 2 3 6 4 5 4 4 5 5 5 5 5 4 3 3 2 2 2 2 2 2 2 2 2 3 2 2 1 1 1 1 1 1 1 1 1 1 1 1 1 2 2 1
5 6 5 5 4 4 2 2 8 5 3 4 5 5 4 4 4 4 4 4 3 4 3 3 3 3 2 2 2 3 3 3 4 3 2 2 1 1 1 0 1 1 1 1 1 1 2 1 1
1 4 5 4 4 4 2 4 6 3 2 1 2 2 3 3 4 4 5 5 5 5 4 4 4 3 3 3 3 3 3 2 2 3 2 2 2 2 2 1 1 1 1 1 1 1 1 1 1
2 1 3 5 1 1 4 5 5 1 1 1 1 2 2 3 4 4 4 4 4 4 5 5 4 4 3 4 3 3 3 3 3 3 2 2 2 2 2 2 1 1 0 0 0 0 1 1 1
2 3 4 3 2 2 4 4 4 4 4 2 2 2 3 3 3 3 3 4 4 4 4 4 4 5 4 4 4 3 3 3 3 2 3 3 3 2 2 2 2 1 1 0 0 0 0 0 0
1 1 3 3 3 3 3 7 5 6 5 5 4 4 4 3 3 3 3 3 3 3 3 3 4 4 3 4 4 3 3 3 3 3 4 3 3 3 3 3 3 2 2 2 1 1 1 1 0
2 3 4 3 2 3 2 8 4 3 4 4 4 3 3 3 3 2 2 2 2 3 3 3 3 4 4 4 3 4 3 3 3 4 4 3 3 3 3 3 3 3 3 2 3 2 2 2 1
Wind_Direction
313 358 61 59 68 82 224 234 211 166 152 154 85 99 111 108 138 152 155 133 126 129 125 116 113 111 109 105 102 100 98 97 93 91 88 86 84 79 75 77 71 68 67 66 66 62 57 57 66
15 26 64 70 119 184 239 226 209 202 173 146 76 77 84 82 76 105 126 130 125 125 122 116 108 110 107 103 100 99 96 92 90 88 85 80 76 73 72 71 62 55 53 52 53 51 45 42 42
15 98 104 103 164 191 210 207 196 211 119 111 77 50 80 98 93 114 134 129 119 118 116 114 106 107 107 103 100 98 95 91 86 81 78 73 70 68 69 64 58 47 39 35 36 36 29 15 2
78 70 70 124 213 225 209 204 182 153 61 59 95 74 55 23 44 122 126 122 116 112 110 112 104 101 101 103 103 100 96 91 84 80 75 66 60 63 64 55 50 43 36 32 22 7 340 327 319
75 104 120 198 227 251 245 226 168 127 89 75 95 93 57 5 49 97 118 120 119 110 102 106 101 99 97 94 98 99 96 91 83 76 70 63 52 46 49 52 45 36 21 6 351 334 325 316 307
92 100 138 200 211 227 256 232 126 101 99 91 92 97 95 25 63 81 104 112 116 112 98 93 90 89 90 90 86 87 90 87 79 68 60 52 47 46 48 36 25 10 354 341 331 324 318 316 310
131 131 177 187 183 208 231 209 136 128 111 117 116 106 121 66 76 95 93 93 93 95 93 82 80 80 77 79 79 73 75 74 68 59 50 43 36 34 37 28 16 5 355 341 333 326 322 318 317
145 132 177 191 175 205 206 108 99 119 119 72 85 128 158 179 131 95 84 79 81 78 77 78 69 67 67 71 69 66 62 61 58 51 45 40 33 27 26 22 12 7 1 349 338 328 324 321 318
98 87 193 202 185 203 189 108 56 67 93 53 48 117 146 137 117 94 82 69 66 65 61 65 66 61 56 72 64 58 57 53 55 50 46 43 26 16 20 15 16 11 3 351 341 333 331 329 319
103 151 223 231 214 193 166 129 135 87 67 67 61 74 108 114 110 106 105 98 84 69 58 60 64 62 56 61 59 53 58 49 46 44 42 37 26 17 28 18 18 10 3 355 347 342 334 330 317
137 183 254 296 270 183 122 109 100 113 110 167 147 137 123 110 106 111 113 113 110 93 67 51 59 58 57 52 57 50 45 41 33 31 37 37 32 18 20 19 9 1 3 357 348 348 339 323 312
120 309 288 310 323 45 113 108 70 82 172 161 141 136 122 119 122 125 123 122 111 93 79 52 52 57 56 57 53 60 54 42 30 19 26 43 39 26 13 12 355 358 352 346 345 336 329 323 313
118 71 6 9 37 61 78 74 88 62 101 115 118 118 122 124 122 117 119 118 112 98 80 56 56 56 59 57 45 56 52 54 42 30 25 38 46 26 14 360 356 347 348 346 335 333 329 326 322
139 77 24 12 31 33 80 59 75 120 119 115 120 125 130 130 129 119 119 115 119 111 89 57 61 59 65 66 57 51 46 50 48 36 23 29 37 34 21 6 359 352 343 331 323 321 316 311 316
91 63 27 10 29 41 79 44 69 155 129 122 129 132 131 132 131 135 142 133 135 128 103 69 84 65 62 65 57 56 50 59 52 34 26 28 32 35 29 16 359 344 338 337 336 337 329 329 329
64 60 52 341 47 42 90 126 216 149 130 132 140 139 136 138 142 142 142 137 138 127 103 68 67 70 63 65 58 55 58 64 53 34 28 25 26 35 38 22 359 347 349 350 343 346 335 332 328
51 85 103 339 10 74 103 179 226 151 140 149 160 159 155 153 153 156 155 146 139 133 118 93 70 68 59 54 57 56 57 59 54 41 29 19 20 28 36 25 359 354 1 358 348 348 335 324 327
166 140 124 165 345 88 116 201 210 178 160 172 178 177 175 180 192 178 160 144 138 134 119 106 77 52 54 47 46 44 47 38 45 43 31 24 20 27 34 29 9 7 9 360 351 337 335 312 316
142 120 111 264 17 93 153 211 238 207 188 191 195 194 193 199 199 174 159 147 136 126 117 114 87 37 55 55 55 47 23 6 24 36 43 32 25 26 37 24 14 14 15 358 348 341 339 339 341
98 102 88 36 32 87 136 270 255 220 208 200 199 203 200 198 186 178 168 157 154 154 161 164 150 118 68 136 182 185 182 221 58 18 35 35 30 21 30 26 14 12 13 10 5 3 346 341 1
57 127 152 143 25 46 68 322 280 256 219 203 202 199 194 191 190 187 182 183 175 183 194 193 189 184 223 209 110 75 59 28 15 1 360 10 30 28 29 28 22 14 21 3 353 2 8 340 330
65 334 117 109 89 324 102 264 283 262 245 216 212 200 198 193 184 183 181 185 193 205 196 192 191 194 230 193 157 157 170 207 231 249 306 343 13 16 20 26 25 19 14 7 352 15 1 355 336
162 40 63 75 96 44 24 138 286 299 246 240 223 210 203 196 185 185 188 193 198 198 191 197 189 203 221 199 192 179 193 210 227 239 315 332 344 360 10 22 23 19 9 10 16 12 16 19 354
81 51 46 42 63 15 250 161 276 250 230 232 214 206 198 188 182 186 191 183 191 190 193 194 191 215 220 209 205 199 207 212 218 236 243 268 290 328 347 18 23 13 4 3 7 17 31 30 31
56 74 45 14 12 258 279 190 253 264 251 209 200 201 195 182 175 181 185 188 197 199 203 200 202 226 229 221 223 219 215 209 215 225 222 228 247 265 282 328 350 339 336 349 18 42 32 28 45
38 121 145 176 214 278 317 239 261 298 317 137 160 167 168 180 191 199 202 201 203 205 204 201 211 226 229 229 238 236 222 212 224 224 215 218 226 234 237 229 236 274 334 360 26 40 22 39 43
106 105 158 129 153 279 282 283 304 357 22 62 108 136 186 206 210 213 213 209 208 209 209 207 212 223 231 234 237 239 230 222 229 232 223 227 231 232 224 220 223 242 283 335 37 43 357 28 28
129 139 91 106 139 263 294 271 248 244 238 228 204 209 229 232 229 226 217 215 217 217 218 215 215 220 228 231 232 236 232 230 228 221 227 230 233 228 217 223 222 234 246 245 163 291 296 55 325
128 122 110 115 154 161 258 270 233 213 210 208 220 223 221 225 232 229 225 225 225 224 221 225 228 228 236 235 234 239 240 232 224 220 227 227 226 220 217 216 216 222 226 216 193 218 230 213 273
193 181 146 148 213 177 199 267 278 213 202 189 209 223 223 223 228 230 228 234 241 242 240 236 235 234 237 232 230 236 239 232 229 233 232 224 223 221 218 214 216 222 222 213 204 213 214 211 222